| time (UTC) | temp C | wind direction | speed KPH | gust KPH | rain 1hr cm | rain 24hr cm | rain mn cm | humidity % | barometer mb |
| 20260507191549 | 15 | 264 | 4.8 | 16.1 | 0.00 | 0.00 | 0.00 | 42 | 1014.9 |
| 20260507190052 | 15 | 55 | 9.7 | 19.3 | 0.00 | 0.00 | 0.00 | 44 | 1015.0 |
| 20260507184551 | 15 | 24 | 6.4 | 14.5 | 0.00 | 0.00 | 0.00 | 45 | 1015.0 |
| 20260507183049 | 14 | 312 | 6.4 | 16.1 | 0.00 | 0.00 | 0.00 | 41 | 1015.0 |
| 20260507181554 | 13 | 360 | 6.4 | 20.9 | 0.00 | 0.00 | 0.00 | 42 | 1015.3 |
| 20260507180048 | 14 | 1 | 6.4 | 17.7 | 0.00 | 0.00 | 0.00 | 42 | 1015.3 |
| 20260507174557 | 14 | 323 | 8.0 | 17.7 | 0.00 | 0.00 | 0.00 | 43 | 1015.7 |
| 20260507173118 | 13 | 273 | 11.3 | 19.3 | 0.00 | 0.00 | 0.00 | 39 | 1015.6 |
| 20260507171554 | 13 | 360 | 6.4 | 20.9 | 0.00 | 0.00 | 0.00 | 46 | 1015.9 |
| 20260507170058 | 13 | 333 | 8.0 | 19.3 | 0.00 | 0.00 | 0.00 | 42 | 1016.0 |
| 20260507164555 | 12 | 295 | 11.3 | 20.9 | 0.00 | 0.00 | 0.00 | 43 | 1016.1 |
| 20260507163051 | 12 | 278 | 6.4 | 17.7 | 0.00 | 0.00 | 0.00 | 42 | 1016.3 |
| 20260507161602 | 12 | 295 | 11.3 | 22.5 | 0.00 | 0.00 | 0.00 | 42 | 1016.3 |
| 20260507160050 | 13 | 309 | 8.0 | 16.1 | 0.00 | 0.00 | 0.00 | 51 | 1016.5 |
| 20260507154555 | 12 | 300 | 3.2 | 12.9 | 0.00 | 0.00 | 0.00 | 46 | 1016.3 |
| 20260507153059 | 12 | 265 | 9.7 | 20.9 | 0.00 | 0.00 | 0.00 | 43 | 1016.3 |
| 20260507151551 | 12 | 309 | 4.8 | 19.3 | 0.00 | 0.00 | 0.00 | 45 | 1016.3 |
| 20260507150055 | 12 | 16 | 3.2 | 11.3 | 0.00 | 0.00 | 0.00 | 46 | 1016.2 |
| 20260507144551 | 11 | 308 | 4.8 | 12.9 | 0.00 | 0.00 | 0.00 | 47 | 1016.2 |
| 20260507143049 | 11 | 29 | 8.0 | 17.7 | 0.00 | 0.00 | 0.00 | 51 | 1016.4 |
| 20260507141602 | 11 | 15 | 8.0 | 17.7 | 0.00 | 0.00 | 0.00 | 47 | 1016.4 |
| 20260507140045 | 11 | 300 | 4.8 | 12.9 | 0.00 | 0.00 | 0.00 | 52 | 1016.4 |
| 20260507134554 | 11 | 13 | 3.2 | 12.9 | 0.00 | 0.00 | 0.00 | 55 | 1016.4 |
| 20260507133049 | 10 | 347 | 6.4 | 16.1 | 0.00 | 0.00 | 0.00 | 56 | 1016.3 |
| 20260507131548 | 10 | 38 | 4.8 | 9.7 | 0.00 | 0.00 | 0.00 | 59 | 1016.4 |
| 20260507130048 | 9 | 359 | 8.0 | 11.3 | 0.00 | 0.00 | 0.00 | 61 | 1016.3 |
| 20260507124547 | 8 | 4 | 4.8 | 8.0 | 0.00 | 0.00 | 0.00 | 67 | 1016.3 |
| 20260507123050 | 8 | 11 | 1.6 | 4.8 | 0.00 | 0.00 | 0.00 | 71 | 1016.7 |
| 20260507121549 | 7 | 0 | 0.0 | 3.2 | 0.00 | 0.00 | 0.00 | 74 | 1016.6 |
| 20260507120100 | 6 | 0 | 0.0 | 0.0 | 0.00 | 0.00 | 0.00 | 77 | 1016.6 |
| 20260507114549 | 6 | 0 | 0.0 | 0.0 | 0.00 | 0.00 | 0.00 | 79 | 1016.6 |
| 20260507113049 | 5 | 0 | 1.6 | 4.8 | 0.00 | 0.00 | 0.00 | 80 | 1016.5 |
| 20260507111543 | 5 | 273 | 1.6 | 3.2 | 0.00 | 0.00 | 0.00 | 83 | 1016.2 |
| 20260507110047 | 5 | 0 | 0.0 | 0.0 | 0.00 | 0.00 | 0.00 | 85 | 1015.8 |
| 20260507104552 | 5 | 0 | 0.0 | 0.0 | 0.00 | 0.00 | 0.00 | 85 | 1015.6 |
| 20260507103046 | 5 | 0 | 0.0 | 4.8 | 0.00 | 0.00 | 0.00 | 86 | 1015.6 |
| 20260507101557 | 5 | 0 | 0.0 | 1.6 | 0.00 | 0.00 | 0.00 | 86 | 1015.7 |
| 20260507100047 | 5 | 315 | 0.0 | 4.8 | 0.00 | 0.00 | 0.00 | 86 | 1015.6 |
| 20260507094550 | 5 | 0 | 0.0 | 0.0 | 0.00 | 0.00 | 0.00 | 86 | 1015.7 |
| 20260507093049 | 5 | 0 | 1.6 | 3.2 | 0.00 | 0.00 | 0.00 | 86 | 1015.6 |
| 20260507091548 | 5 | 0 | 0.0 | 4.8 | 0.00 | 0.00 | 0.00 | 87 | 1015.4 |
| 20260507090054 | 6 | 0 | 0.0 | 0.0 | 0.00 | 0.00 | 0.00 | 86 | 1015.3 |
| 20260507084548 | 6 | 0 | 0.0 | 1.6 | 0.00 | 0.03 | 0.00 | 86 | 1015.3 |
| 20260507083042 | 6 | 0 | 0.0 | 3.2 | 0.00 | 0.03 | 0.00 | 85 | 1015.2 |
| 20260507081550 | 6 | 0 | 0.0 | 0.0 | 0.00 | 0.03 | 0.00 | 86 | 1015.1 |
| 20260507080056 | 6 | 0 | 0.0 | 0.0 | 0.00 | 0.03 | 0.00 | 86 | 1015.2 |
| 20260507074551 | 6 | 0 | 0.0 | 0.0 | 0.00 | 0.28 | 0.00 | 85 | 1015.1 |
| 20260507073121 | 6 | 0 | 0.0 | 3.2 | 0.00 | 0.28 | 0.00 | 84 | 1015.1 |
| 20260507071549 | 7 | 0 | 0.0 | 0.0 | 0.00 | 0.28 | 0.00 | 84 | 1015.2 |
| 20260507070051 | 7 | 0 | 0.0 | 0.0 | 0.00 | 0.28 | 0.00 | 84 | 1015.2 |
| 20260507064609 | 7 | 0 | 0.0 | 3.2 | 0.00 | 0.64 | 0.00 | 84 | 1015.1 |
| 20260507063117 | 7 | 0 | 0.0 | 0.0 | 0.00 | 0.64 | 0.00 | 84 | 1015.4 |
| 20260507061556 | 7 | 0 | 0.0 | 0.0 | 0.00 | 0.64 | 0.00 | 84 | 1015.5 |
| 20260507060051 | 6 | 0 | 0.0 | 0.0 | 0.00 | 0.64 | 0.00 | 84 | 1015.4 |
| 20260507054556 | 6 | 0 | 0.0 | 0.0 | 0.00 | 0.84 | 0.00 | 86 | 1015.3 |
| 20260507053053 | 6 | 0 | 0.0 | 0.0 | 0.00 | 0.84 | 0.00 | 86 | 1015.5 |
| 20260507051552 | 7 | 0 | 0.0 | 0.0 | 0.00 | 0.84 | 0.00 | 85 | 1015.6 |
| 20260507050057 | 7 | 0 | 0.0 | 0.0 | 0.00 | 0.84 | 0.00 | 84 | 1015.4 |
| 20260507044551 | 7 | 0 | 0.0 | 0.0 | 0.00 | 1.07 | 0.00 | 83 | 1015.6 |
| 20260507043051 | 8 | 0 | 0.0 | 0.0 | 0.00 | 1.07 | 0.00 | 81 | 1015.7 |
| 20260507041553 | 8 | 0 | 0.0 | 0.0 | 0.00 | 1.07 | 0.00 | 79 | 1015.7 |
| 20260507040103 | 8 | 0 | 0.0 | 0.0 | 0.00 | 1.07 | 0.00 | 79 | 1015.7 |
| 20260507034602 | 8 | 0 | 0.0 | 0.0 | 0.00 | 1.07 | 1.07 | 81 | 1015.6 |
| 20260507033105 | 8 | 0 | 0.0 | 0.0 | 0.00 | 1.07 | 1.07 | 77 | 1015.5 |
| 20260507031555 | 8 | 0 | 0.0 | 0.0 | 0.00 | 1.07 | 1.07 | 75 | 1015.5 |
| 20260507030054 | 9 | 0 | 0.0 | 0.0 | 0.00 | 1.07 | 1.07 | 76 | 1015.5 |
| 20260507024605 | 9 | 0 | 0.0 | 0.0 | 0.00 | 1.12 | 1.07 | 75 | 1015.6 |
| 20260507023054 | 10 | 0 | 0.0 | 0.0 | 0.00 | 1.12 | 1.07 | 73 | 1015.4 |
| 20260507021601 | 10 | 0 | 0.0 | 0.0 | 0.00 | 1.12 | 1.07 | 71 | 1015.4 |
| 20260507020055 | 11 | 0 | 0.0 | 0.0 | 0.00 | 1.12 | 1.07 | 70 | 1015.1 |
| 20260507014555 | 11 | 0 | 0.0 | 0.0 | 0.00 | 1.14 | 1.07 | 68 | 1015.2 |
| 20260507013103 | 11 | 0 | 0.0 | 0.0 | 0.00 | 1.14 | 1.07 | 67 | 1015.1 |
| 20260507011552 | 11 | 0 | 0.0 | 3.2 | 0.00 | 1.14 | 1.07 | 64 | 1014.9 |
| 20260507010055 | 12 | 8 | 1.6 | 3.2 | 0.00 | 1.14 | 1.07 | 64 | 1014.7 |
| 20260507004553 | 12 | 0 | 0.0 | 4.8 | 0.00 | 1.14 | 1.07 | 63 | 1014.6 |
| 20260507003048 | 13 | 15 | 0.0 | 3.2 | 0.00 | 1.14 | 1.07 | 60 | 1014.6 |
| 20260507001611 | 13 | 0 | 0.0 | 4.8 | 0.00 | 1.14 | 1.07 | 60 | 1014.4 |
| 20260507000057 | 13 | 0 | 0.0 | 3.2 | 0.00 | 1.14 | 1.07 | 61 | 1014.3 |
| 20260506234559 | 13 | 8 | 0.0 | 6.4 | 0.00 | 1.27 | 1.07 | 59 | 1014.2 |
| 20260506233104 | 13 | 300 | 1.6 | 4.8 | 0.00 | 1.27 | 1.07 | 58 | 1013.9 |
| 20260506231556 | 13 | 360 | 1.6 | 9.7 | 0.00 | 1.27 | 1.07 | 57 | 1013.6 |
| 20260506230058 | 13 | 351 | 4.8 | 9.7 | 0.00 | 1.27 | 1.07 | 55 | 1013.4 |
| 20260506224606 | 13 | 359 | 1.6 | 11.3 | 0.00 | 1.27 | 1.07 | 56 | 1013.4 |
| 20260506223057 | 14 | 1 | 3.2 | 11.3 | 0.00 | 1.27 | 1.07 | 56 | 1013.5 |
| 20260506221552 | 14 | 360 | 3.2 | 8.0 | 0.00 | 1.27 | 1.07 | 55 | 1013.6 |
| 20260506214551 | 14 | 359 | 4.8 | 16.1 | 0.00 | 1.37 | 1.07 | 58 | 1013.9 |
| 20260506213053 | 15 | 13 | 4.8 | 12.9 | 0.00 | 1.37 | 1.07 | 55 | 1013.6 |
| 20260506211554 | 15 | 273 | 4.8 | 9.7 | 0.00 | 1.37 | 1.07 | 54 | 1013.5 |
| 20260506210046 | 15 | 342 | 3.2 | 9.7 | 0.00 | 1.37 | 1.07 | 53 | 1013.4 |
| 20260506204549 | 15 | 21 | 6.4 | 9.7 | 0.00 | 1.83 | 1.07 | 57 | 1013.3 |
| 20260506203057 | 15 | 30 | 8.0 | 12.9 | 0.00 | 1.83 | 1.07 | 51 | 1013.4 |
| 20260506201552 | 15 | 309 | 3.2 | 11.3 | 0.00 | 1.83 | 1.07 | 51 | 1013.6 |
| 20260506200050 | 16 | 358 | 3.2 | 11.3 | 0.00 | 1.83 | 1.07 | 52 | 1013.4 |
| 20260506194552 | 16 | 343 | 6.4 | 12.9 | 0.00 | 1.83 | 1.07 | 55 | 1013.6 |
| 20260506193053 | 16 | 360 | 1.6 | 14.5 | 0.00 | 1.83 | 1.07 | 53 | 1013.6 |